Location: Houghton
(52.8833°N, 0.8667°E)
Time: 14:42:04
(UTC+00:00)

Daily predictions for brighter satellites

Satellite Brightness Start Highest point End
(mag) Time Altitude Azimuth Time Altitude Azimuth Time Altitude Azimuth
Cosmos 2278 Rocket 3.1 21:09:28 10° SSE 21:14:19 30° ESE 21:19:09 10° NE
CENTAUR R/B 4.3 21:09:42 10° W 21:15:47 40° NNW 21:23:19 10° NE
Cosmos 1666 Rocket 3.6 21:12:40 10° N 21:17:01 72° ENE 21:21:17 10° SSE
USA 238 DEB 3.9 21:17:28 10° S 21:23:13 43° ESE 21:29:31 10° NE
USA 238 3.9 21:17:42 10° S 21:23:26 43° ESE 21:29:44 10° NE
SPOT 3 Rocket 3.8 21:18:40 10° S 21:23:47 72° WSW 21:28:59 10° NNW
Lacrosse 5 rocket 0.9 21:20:36 10° WSW 21:24:12 89° NNW 21:27:44 10° ENE
Cosmos 1743 Rocket 4.3 21:20:38 10° NNW 21:24:51 51° W 21:29:05 10° S
Cosmos 1943 Rocket 2.6 21:20:39 10° S 21:25:59 45° ESE 21:31:19 10° NE
YAOGAN 11 4.5 21:26:17 10° N 21:30:42 69° WNW 21:35:01 10° SSW
Cosmos 1745 Rocket 4.2 21:28:24 10° NNW 21:34:42 78° W 21:41:02 10° S
USA 245 3.7 21:36:04 10° S 21:38:44 34° WSW 21:41:05 10° NNW
Cosmos 1515 Rocket 4.4 21:36:41 10° SSE 21:40:36 34° E 21:44:31 10° NNE
Meteor 1-12 Rocket 4.5 21:36:21 10° N 21:42:02 63° ENE 21:47:40 11° SSE
USA 186 3.7 21:43:44 10° WSW 21:44:25 11° W 21:45:07 10° WNW
Cosmos 1624 Rocket 4.1 21:39:54 10° NNW 21:45:15 83° WSW 21:50:25 11° SSE
Okean 2 3.7 21:42:57 10° SSE 21:46:37 45° E 21:50:19 10° NNE
Cosmos 1633 Rocket 3.3 21:42:26 10° NNW 21:46:49 72° W 21:51:11 10° S
Cosmos 1680 Rocket 3.6 21:43:17 10° S 21:48:22 60° ESE 21:53:31 10° NNE
COSMOS 2406 4.0 21:43:48 10° NNW 21:49:17 45° NE 21:54:43 10° ESE
Cosmos 1400 Rocket 3.1 21:46:29 10° N 21:50:03 48° ENE 21:53:10 13° SSE
Cosmos 2056 Rocket 3.6 21:49:13 10° NNW 21:54:17 69° WSW 21:59:06 11° SSE
Meteor 1-23 Rocket 4.2 21:56:03 10° S 22:01:37 84° ESE 22:07:14 10° NNE
USA 215 3.3 22:02:44 10° ESE 22:09:17 85° NNE 22:15:51 10° WNW
USA 276 2.8 22:08:48 10° SSW 22:10:40 20° SSE 22:12:44 10° ESE
Cosmos 2074 Rocket 4.3 22:07:06 10° N 22:13:16 60° ENE 22:18:40 14° SSE
NOSS 2-1 (E) 3.1 22:12:27 10° SSW 22:16:06 48° SE 22:19:10 10° NE
Ariane Rocket 4.3 22:13:00 10° SSW 22:17:37 34° W 22:22:15 10° NNW
Okean O Rocket 4.3 22:20:23 10° WSW 22:22:04 12° W 22:23:46 10° WNW
NOSS 3-1 (C) 4.5 22:21:46 13° SE 22:23:48 17° ESE 22:27:10 10° ENE
USA 308 3.6 22:26:25 17° SE 22:26:25 17° SE 22:28:31 10° E
Lacrosse 4 Rocket 3.2 22:23:30 10° NNW 22:27:11 28° NE 22:30:51 10° E
Helios 1B rocket 2.7 22:24:53 16° SE 22:27:25 44° ENE 22:30:44 10° N
Cosmos 1470 Rocket 4.5 22:23:19 10° NNW 22:27:33 43° W 22:31:40 10° SSW
Cosmos 2315 Rocket 4.4 22:23:17 10° SSW 22:29:27 64° WNW 22:35:38 10° N
Cosmos 1812 0.4 22:29:02 10° NNW 22:30:44 86° W 22:31:08 44° S
ATLAS 5 CENTAUR R/B 4.5 22:25:22 10° SW 22:31:26 87° NW 22:58:53 10° ENE
USA 59 Rocket -0.6 22:31:16 10° SW 22:34:39 73° NW 22:37:36 10° NE
Cosmos 1933 Rocket 3.6 22:30:40 10° NNW 22:35:01 76° W 22:38:23 16° S
Cosmos 1441 Rocket 2.7 22:33:46 18° S 22:36:00 66° E 22:39:13 10° NNE
ATLAS 5 CENTAUR R/B 2.3 22:37:18 16° SE 22:37:29 16° ESE 22:39:29 10° ENE
Okean 3 3.3 22:34:54 15° S 22:38:10 82° E 22:42:13 10° NNE
CZ-2C R/B 4.1 22:36:48 10° SW 22:38:50 19° W 22:40:54 10° NW
BREEZE-M DEB (TANK) 3.3 22:29:46 10° W 22:38:55 80° S 22:41:50 10° ESE
Cosmos 2112 Rocket 4.2 22:33:57 10° SSW 22:39:06 71° WNW 22:44:20 10° NNE
NOSS 2-1 (D) 2.8 22:36:07 10° SW 22:39:37 79° NW 22:42:37 10° NE
Cosmos 1110 Rocket 4.2 22:36:17 10° NNW 22:41:26 65° WSW 22:45:23 17° S
SWAS 4.2 22:40:44 10° SSW 22:44:46 75° ESE 22:48:50 10° NE
Cosmos 2344 3.7 22:39:41 10° SW 22:47:14 77° NW 22:54:36 10° NE
GEOS 3 Rocket 4.3 22:42:17 10° ESE 22:47:32 58° NE 22:52:51 10° NW
Cosmos 2082 Rocket 2.9 22:45:54 10° NW 22:51:11 43° WSW 22:55:23 16° S
Cosmos 1452 Rocket 3.5 22:46:35 10° NNW 22:51:54 79° WSW 22:55:52 18° SSE
ACS3 Solar Sail 3.5 22:49:02 10° NE 22:52:41 17° E 22:56:22 10° ESE
Helios 1A 2.8 22:49:12 10° NNE 22:53:11 89° WNW 22:56:22 15° SSW
SL-4 R/B 2.7 22:55:57 21° SE 22:55:57 21° SE 22:58:07 10° E
Cosmos 2278 Rocket 2.7 22:52:26 10° SW 22:58:02 61° NW 23:03:41 10° NNE
NOSS 2-1 (C) 3.2 22:56:05 10° WSW 22:59:32 63° NW 23:02:30 10° NE
Cosmos 2184 Rocket 4.2 22:53:59 10° NNW 23:00:16 73° W 23:05:24 16° S
TIMED 4.4 22:56:51 13° SSW 23:00:36 88° SE 23:04:54 10° NNE
Lacrosse 5 rocket 2.3 22:57:34 10° W 23:00:59 42° N 23:04:19 10° ENE
Cosmos 2154 Rocket 4.1 22:55:16 10° NNW 23:01:29 76° W 23:06:28 17° S
Cosmos 614 Rocket 4.1 22:57:56 17° S 23:01:48 59° ESE 23:06:47 10° NNE
Cosmos 1174 3.4 23:00:35 10° SW 23:04:28 79° SE 23:07:45 10° NE
Cosmos 1869 Rocket 4.1 23:03:02 10° NNW 23:07:12 50° W 23:10:17 17° SSW
CENTAUR R/B 4.4 23:01:23 10° NW 23:08:11 41° NNE 23:16:25 10° E
ARIANE 5 R/B 2.6 23:05:10 20° SSE 23:08:16 89° WSW 23:12:43 10° NNW
Timation 2 Rocket 4.2 23:01:54 10° SW 23:08:17 82° NW 23:15:00 10° NNE
SL-8 Rocket 4.5 23:03:14 10° N 23:09:15 51° ENE 23:14:16 15° SE
SL-8 R/B 4.0 23:05:08 10° SW 23:09:35 42° SSE 23:14:03 10° E
CZ-2C R/B 3.8 23:04:58 10° NNE 23:09:43 73° ESE 23:13:09 18° S
Cosmos 1943 Rocket 3.4 23:04:24 10° WSW 23:09:47 43° NW 23:15:09 10° NNE
ARGOS Delta rocket 4.1 23:05:44 10° N 23:11:02 82° WNW 23:15:12 15° SSW
USA 238 DEB 4.2 23:07:42 10° WSW 23:13:56 62° NW 23:20:56 10° NE
USA 238 4.1 23:07:55 10° WSW 23:14:09 63° NW 23:21:09 10° NE
CZ-2C R/B 3.9 23:11:26 10° NNE 23:16:29 39° E 23:19:49 18° SSE
SAR-Lupe-2 4.1 23:15:20 19° SE 23:17:17 43° ENE 23:20:22 10° N
Cosmos 1733 Rocket 3.0 23:14:55 10° NNW 23:19:15 88° WSW 23:22:03 21° S
BREEZE-M R/B 4.3 23:15:19 10° WSW 23:20:35 70° S 23:31:39 10° E
CZ-2C R/B 3.2 23:16:25 14° SE 23:20:45 51° ENE 23:25:54 10° N
SL-12 R/B(2) 4.5 23:15:35 11° SSW 23:23:06 60° ESE 23:32:41 10° NE
Cosmos 2341 Rocket 4.3 23:17:45 10° N 23:23:57 62° ENE 23:28:53 16° SSE
ALOS 2 2.6 23:21:23 21° S 23:24:18 74° WSW 23:28:43 10° NNW
Cosmos 1707 Rocket 3.8 23:22:47 21° S 23:25:34 59° E 23:29:56 10° NNE
Cosmos 2228 Rocket 3.7 23:26:00 20° SSE 23:28:40 45° E 23:32:54 10° NNE
IRIDIUM 104 4.4 23:23:41 10° N 23:28:57 76° E 23:32:38 20° SSE
USA 290 2.1 23:26:21 10° NNW 23:29:30 81° ENE 23:31:10 25° SSE
Cosmos 1356 Rocket 3.9 23:25:36 10° N 23:29:32 49° ENE 23:32:18 18° SE
COSMOS 2406 3.8 23:28:14 10° NW 23:33:35 43° WSW 23:37:19 19° S
Cosmos 1315 Rocket 2.6 23:32:00 10° NNW 23:35:49 85° ENE 23:38:04 23° SSE
Cosmos 2369 Rocket 2.5 23:32:22 19° S 23:36:10 52° ESE 23:41:36 10° NE
ARIANE 6 FM1 Upper Stage 2.7 23:34:00 17° SSW 23:37:05 58° SE 23:41:08 10° NE
Cosmos 1862 Rocket 3.5 23:34:20 21° S 23:37:06 82° E 23:41:26 10° NNE
IRIDIUM 114 4.3 23:32:50 10° N 23:38:06 88° E 23:41:46 20° S
Cosmos 2297 4.1 23:36:40 19° S 23:40:31 49° ESE 23:46:00 10° NE
USA 276 1.9 23:40:31 10° WSW 23:42:59 43° S 23:45:42 10° ESE
Cosmos 1656 Rocket 3.9 23:40:55 10° SW 23:46:24 72° WNW 23:52:01 10° NNE
IRIDIUM 103 4.4 23:42:01 10° N 23:47:16 79° W 23:50:55 20° S
USA 308 2.1 23:45:04 15° WSW 23:47:26 65° SSE 23:51:29 10° ENE
Okean 1-7 3.1 23:48:24 20° SSW 23:51:13 72° WNW 23:55:28 10° N
USA 215 3.6 23:47:35 15° SSE 23:52:41 45° SW 23:58:55 10° WNW
PSLV R/B 3.8 23:48:31 10° NNE 23:53:12 75° WNW 23:56:35 18° SSW
